Time,TemperatureF,DewpointF,PressureIn,WindDirection,WindDirectionDegrees,WindSpeedMPH,WindSpeedGustMPH,Humidity,HourlyPrecipIn,Conditions,Clouds,dailyrainin,SoftwareType,DateUTC
2013-12-12 00:42:00,16.0,4.0,-100.00,North,-999,0.0,0.0,57,-99.99,,,0.00,,2013-12-12 07:42:00,
2013-12-12 01:22:00,15.0,4.0,-100.00,North,-999,0.0,1.0,59,-99.99,,,0.00,,2013-12-12 08:22:00,
2013-12-12 01:42:00,16.0,4.0,-100.00,North,-999,0.0,0.0,59,-99.99,,,0.00,,2013-12-12 08:42:00,
2013-12-12 02:12:00,17.0,4.0,-100.00,North,-999,0.0,0.0,57,-99.99,,,0.00,,2013-12-12 09:12:00,
2013-12-12 02:43:00,15.0,4.0,-100.00,North,-999,0.0,0.0,59,-99.99,,,0.00,,2013-12-12 09:43:00,
2013-12-12 03:22:00,15.0,4.0,-100.00,North,-999,0.0,0.0,62,-99.99,,,0.00,,2013-12-12 10:22:00,
2013-12-12 04:42:00,14.0,4.0,-100.00,North,-999,0.0,0.0,64,-99.99,,,0.00,,2013-12-12 11:42:00,
2013-12-12 05:42:00,14.0,5.0,-100.00,North,-999,0.0,0.0,65,-99.99,,,0.00,,2013-12-12 12:42:00,
2013-12-12 05:52:00,14.0,4.0,-100.00,North,-999,0.0,0.0,65,-99.99,,,0.00,,2013-12-12 12:52:00,
2013-12-12 06:21:00,13.0,4.0,-100.00,North,-999,0.0,0.0,65,-99.99,,,0.00,,2013-12-12 13:21:00,
2013-12-12 06:42:00,13.0,4.0,-100.00,North,-999,0.0,0.0,66,-99.99,,,0.00,,2013-12-12 13:42:00,
2013-12-12 06:52:00,13.0,4.0,-100.00,North,-999,0.0,0.0,67,-99.99,,,0.00,,2013-12-12 13:52:00,
2013-12-12 07:11:00,13.0,4.0,-100.00,North,-999,0.0,0.0,66,-99.99,,,0.00,,2013-12-12 14:11:00,
2013-12-12 08:22:00,13.0,4.0,-100.00,North,-999,0.0,0.0,66,-99.99,,,0.00,,2013-12-12 15:22:00,
2013-12-12 08:53:00,15.0,6.0,-100.00,North,-999,0.0,0.0,65,-99.99,,,0.00,,2013-12-12 15:53:00,
2013-12-12 09:23:00,22.0,9.0,-100.00,North,-999,0.0,0.0,56,-99.99,,,0.00,,2013-12-12 16:23:00,
2013-12-12 09:42:00,25.0,9.0,-100.00,North,-999,0.0,0.0,50,-99.99,,,0.00,,2013-12-12 16:42:00,
2013-12-12 10:23:00,30.0,9.0,-100.00,North,-999,0.0,5.0,40,-99.99,,,0.00,,2013-12-12 17:23:00,
2013-12-12 11:43:00,35.0,12.0,-100.00,North,-999,0.0,5.0,38,-99.99,,,0.00,,2013-12-12 18:43:00,
2013-12-12 12:11:00,35.0,13.0,-100.00,North,-999,0.0,9.0,39,-99.99,,,0.00,,2013-12-12 19:11:00,
2013-12-12 12:21:00,35.0,12.0,-100.00,North,-999,0.0,9.0,38,-99.99,,,0.00,,2013-12-12 19:21:00,
2013-12-12 13:42:00,37.0,14.0,-100.00,North,-999,0.0,7.0,37,-99.99,,,0.00,,2013-12-12 20:42:00,
2013-12-12 14:11:00,38.0,14.0,-100.00,North,-999,0.0,3.0,36,-99.99,,,0.00,,2013-12-12 21:11:00,
2013-12-12 14:53:00,39.0,15.0,-100.00,North,-999,0.0,4.0,37,-99.99,,,0.00,,2013-12-12 21:53:00,
2013-12-12 15:12:00,40.0,15.0,-100.00,North,-999,0.0,3.0,37,-99.99,,,0.00,,2013-12-12 22:12:00,
2013-12-12 15:22:00,40.0,16.0,-100.00,North,-999,0.0,3.0,37,-99.99,,,0.00,,2013-12-12 22:22:00,
2013-12-12 15:43:00,40.0,15.0,-100.00,North,-999,0.0,3.0,36,-99.99,,,0.00,,2013-12-12 22:43:00,
2013-12-12 16:12:00,38.0,14.0,-100.00,North,-999,0.0,3.0,36,-99.99,,,0.00,,2013-12-12 23:12:00,
2013-12-12 16:22:00,38.0,14.0,-100.00,North,-999,0.0,3.0,37,-99.99,,,0.00,,2013-12-12 23:22:00,
2013-12-12 16:42:00,37.0,14.0,-100.00,North,-999,0.0,3.0,39,-99.99,,,0.00,,2013-12-12 23:42:00,
2013-12-12 18:21:00,31.0,12.0,-100.00,North,-999,0.0,1.0,44,-99.99,,,0.00,,2013-12-13 01:21:00,
2013-12-12 19:42:00,28.0,13.0,-100.00,North,-999,0.0,0.0,52,-99.99,,,0.00,,2013-12-13 02:42:00,
2013-12-12 20:11:00,27.0,13.0,-100.00,North,-999,0.0,0.0,55,-99.99,,,0.00,,2013-12-13 03:11:00,
2013-12-12 20:43:00,27.0,13.0,-100.00,North,-999,0.0,0.0,55,-99.99,,,0.00,,2013-12-13 03:43:00,
2013-12-12 21:22:00,26.0,14.0,-100.00,North,-999,0.0,0.0,59,-99.99,,,0.00,,2013-12-13 04:22:00,
2013-12-12 21:43:00,26.0,14.0,-100.00,North,-999,0.0,0.0,61,-99.99,,,0.00,,2013-12-13 04:43:00,
2013-12-12 22:42:00,24.0,14.0,-100.00,North,-999,0.0,0.0,65,-99.99,,,0.00,,2013-12-13 05:42:00,
2013-12-12 23:12:00,23.0,14.0,-100.00,North,-999,0.0,0.0,66,-99.99,,,0.00,,2013-12-13 06:12:00,